Погода в Веленье

Словения     46°21′25″N   15°06′46″E
темп.,
°C
ветер,
м/с
пор.,
м/с
влажн.,
%
обл.,
%
осадки,
мм/ч
давл.,
гПа
погр.,
м
22 января, сб
сб2201:00−4зюз23712 0.0 102861
04:00−4зюз236459 0.0 102688
07:00−4з23595 0.0 102481
10:000зюз24495 0.0 1023305
13:00+4зюз244934 0.0 1023473
16:00+2вюв226395 0.0 102526
19:00−1всв119096 0.0 103022
22:00−1ююз119899 0.8 103169
23 января, вс
вс2301:00−2юз229862 1.0 103135
04:00−2зюз129378 0.0 1031138
07:00−3з11957 0.0 103121
10:00+1зюз01695 0.0 1031232
13:00+5ююз11565 0.0 1030538
16:00+3ююв11735 0.0 102910
19:00−1св119029 0.0 103210
22:00−2св11955 0.0 103310
24 января, пн
пн2401:00−1всв129797 0.0 103493
04:00−2в239595 0.3 1035208
07:00−3вюв129098 0.5 1036227
10:00−2в228098 0.2 1037462
13:000в126891 0.2 1036735
16:00−1вюв117278 0.0 1036280
19:00−4в008857 0.0 103710
22:00−4зюз119225 0.0 103711
25 января, вт
вт2501:00−4зюз11947 0.0 103621
04:00−4зюз11925 0.0 103516
07:00−4сз11905 0.0 103511
10:000вюв00685 0.0 1034248
13:00+4юз22550 0.0 1032526
16:00+1ююз11671 0.0 103314
19:00−2зсз11825 0.0 103410
22:00−2з118499 0.0 103412
26 января, ср
ср2601:00−2зсз118521 0.0 103312
04:00−2сз118521 0.0 103214
07:00−2ссз11875 0.0 103217
10:00+2св11685 0.0 1032233
13:00+4юв11618 0.0 1031692
16:00+2юв11755 0.0 103111
19:00−2зсз0189100 0.0 103310
22:00−2юз219349 0.0 103223